Home   Weather   Andernach   Past weeks

Flag for Germany Past Weather in Andernach, Rhineland-Palatinate, Germany — Yesterday and Last 2 Weeks

Now
23 °F

Cold.


Feels Like: 23 °F
Forecast: 15 / 30 °F
Wind: 2 mph from East

Location: Buechel

Current Time: Jan 22, 2017 at 11:37:36 pm

Latest Report: Jan 22, 2017 at 10:20 pm


Visibility: 4 mi

Pressure: 30.21 "Hg

Humidity: 74%

Dew Point: 16 °F

Location of AndernachLocation

Past Weather in Andernach — Graph

°F

Andernach Temperature Yesterday

Maximum temperature yesterday: 30 °F (at 1:20 pm)
Minimum temperature yesterday: 23 °F (at 11:20 pm)
Average temperature yesterday: 27 °F

High & Low Weather Summary for the Past Weeks

 TemperatureHumidityPressure
High39 °F (Jan 11, 6:20 pm)100% (Jan 7, 10:20 pm)30.57 "Hg (Jan 7, 10:20 pm)
Low14 °F (Jan 18, 6:20 am)34% (Jan 20, 11:43 am)29.00 "Hg (Jan 13, 1:20 am)
Average28 °F86%30.12 "Hg
* Reported Jan 7 10:20 pm — Jan 22 10:20 pm, Andernach, Weather by CustomWeather, © 2017

Note: Actual official high and low records may vary slightly from our data, if they occured in-between our weather recording intervals... More about our weather records

Advertising

Andernach Weather History for the Previous 24 Hours

Scroll right to see more
 ConditionsComfort  
Time TempWeatherWind HumidityBarometerVisibility
10:20 pm
Sun, Jan 22
23 °FCold.2 mph74%30.21 "Hg4 mi
9:20 pm23 °FCold.5 mph74%30.21 "Hg4 mi
8:20 pm25 °FCold.7 mph74%30.21 "Hg4 mi
7:20 pm25 °FCold.6 mph74%30.21 "Hg4 mi
6:20 pm23 °FCold.2 mph68%30.21 "Hg4 mi
5:20 pm25 °FCold.5 mph63%30.18 "Hg4 mi
4:20 pm27 °FChilly.3 mph64%30.18 "Hg4 mi
3:20 pm28 °FChilly.3 mph59%30.21 "Hg4 mi
2:20 pm28 °FChilly.2 mph59%30.21 "Hg4 mi
1:20 pm27 °FChilly.3 mph64%30.21 "Hg4 mi
12:20 pm27 °FChilly.5 mph64%30.24 "Hg4 mi
11:20 am25 °FCold.7 mph63%30.24 "Hg4 mi
10:20 am23 °FCold.5 mph68%30.24 "Hg4 mi
9:20 am23 °FCold.6 mph68%30.24 "Hg4 mi
8:20 am21 °FCold.5 mph74%30.24 "Hg4 mi
7:20 am21 °FCold.5 mph74%30.24 "Hg4 mi
6:20 am21 °FCold.5 mph74%30.27 "Hg4 mi
5:20 am19 °FCold.5 mph79%30.27 "Hg4 mi
4:20 am23 °FCold.6 mph68%30.27 "Hg4 mi
3:20 am23 °FCold.6 mph68%30.27 "Hg4 mi
2:20 am23 °FCold.5 mph74%30.27 "Hg4 mi
1:20 am21 °FCold.6 mph74%30.27 "Hg4 mi
12:20 am23 °FCold.5 mph68%30.30 "Hg4 mi
11:20 pm
Sat, Jan 21
23 °FCold.5 mph63%30.30 "Hg4 mi
Weather by CustomWeather, © 2017

See weather overviewHow to use our weather pages